Regional Weather Roundup
Issued by NWS Columbia, SC

Home | Current Version | Previous Version | Text Only | Print | Product List | Glossary On
Versions: 1 2 3 4 5 6 7 8 9 10 11 12 13 14 15 16 17 18 19 20 21 22 23 24 25 26 27 28 29 30 31 32 33 34 35 36 37 38 39 40 41 42 43 44 45 46 47 48 49 50
000
ASUS42 KCAE 180510
RWRCAE
REGIONAL WEATHER ROUNDUP
NATIONAL WEATHER SERVICE COLUMBIA SC
100 AM EDT SAT APR 18 2015

NOTE: "FAIR" INDICATES FEW OR NO CLOUDS BELOW 12,000 FEET WITH NO
SIGNIFICANT WEATHER AND/OR OBSTRUCTIONS TO VISIBILITY.

NOT ALL STATIONS ARE QUALITY CONTROLLED BY THE NATIONAL
WEATHER SERVICE. USE DATA WITH CAUTION...ESPECIALLY
DEWPOINT OBSERVATIONS.

SCZ001>056-GAZ040-063>065-077-180600-
...UPSTATE SOUTH CAROLINA...

CITY           SKY/WX    TMP DP  RH WIND       PRES   REMARKS
ANDERSON       FOG       62  62 100 CALM      30.04S VSB 1/2
LIBERTY        CLOUDY    61  61 100 N3        30.03F FOG
SPARTANBURG    DRZL/FOG  63  63 100 CALM      30.03F VSB 1/2
CLEMSON        LGT RAIN  64  61  90 CALM      30.05S VSB 1/2
GREENVILLE     LGT RAIN  63  61  93 CALM      30.04F
GREENWOOD      LGT RAIN  63  62  97 CALM      30.05F FOG
GREER          LGT RAIN  62  62 100 CALM      30.02F FOG
ROCK HILL      LGT RAIN  62  61  96 CALM      30.04F
CHESTER        DRIZZLE   64  63  94 CALM      30.04S
LAURENS        CLOUDY    61  61 100 CALM      30.04F


...CENTRAL SOUTH CAROLINA...

CITY           SKY/WX    TMP DP  RH WIND       PRES   REMARKS
COLUMBIA APT   CLOUDY    67  64  90 CALM      30.02S FOG
COLUMBIA OWENS CLOUDY    66  64  93 CALM      30.03S FOG
DARLINGTON     CLOUDY    66  63  88 NW6       30.04R
FLORENCE       FOG       67  65  93 CALM      30.01S VSB 1
MCENTIRE ANGB  CLOUDY    64  64 100 NW3       30.03R FOG
ORANGEBURG     CLOUDY    66  64  93 CALM      30.02S FOG
SUMTER SHAW    LGT RAIN  65  64  96 NE2       30.00S
NEWBERRY       CLOUDY    63  63 100 CALM      30.06F FOG
AIKEN          HVY RAIN  54  54 100 CALM      30.06F
BARNWELL       LGT RAIN  66  66 100 CALM      30.03S
MANNING        CLOUDY    64  63  94 CALM      30.01F
CAMDEN         DRIZZLE   64  64 100 CALM      30.03S
LANCASTER      LGT RAIN  63  63 100 W3        30.05R
WINNSBORO      DRIZZLE   63  63 100 CALM      30.03S


...EASTERN AND COASTAL SOUTH CAROLINA...

CITY           SKY/WX    TMP DP  RH WIND       PRES   REMARKS
MYRTLE BEACH   CLOUDY    70  66  88 CALM      30.01F
N MYRTLE BCH   CLOUDY    66  65  96 CALM      29.99F FOG
CONWAY         MOCLDY    64 N/A N/A CALM      30.00F HAZE
MARION         MOCLDY    66  66 100 CALM      30.01S FOG
HARTSVILLE     CLOUDY    64  63  94 CALM      30.03S
FLORENCE       FOG       67  65  93 CALM      30.01S VSB 1
DARLINGTON     CLOUDY    66  63  88 NW6       30.04R
CHARLESTON APT CLOUDY    68  66  93 N5        29.99F
MOUNT PLEASANT MOCLDY    66  66 100 CALM      29.99S FOG
WALTERBORO     DRIZZLE   64  64 100 CALM      30.01F
BEAUFORT       CLOUDY    68  67  96 CALM      30.01R


...EASTERN GEORGIA...

CITY           SKY/WX    TMP DP  RH WIND       PRES   REMARKS
AUGUSTA BUSH F RAIN      65  64  97 CALM      30.01F FOG
AUGUSTA DANIEL LGT RAIN  66  64  93 NW5       30.03F
THOMSON        CLOUDY    65  65 100 CALM      30.07F
WASHINGTON     DRIZZLE   66 N/A N/A CALM      30.03S
CLAXTON        HVY RAIN  64  64 100 CALM      30.02S
SYLVANIA       DRIZZLE   66  66 100 CALM      30.02F
STATESBORO     LGT RAIN  66  66 100 CALM      30.02S
SAVANNAH       CLOUDY    68  66  93 W3        30.01S


...SOUTHERN NORTH CAROLINA...

CITY           SKY/WX    TMP DP  RH WIND       PRES   REMARKS
CHARLOTTE      CLOUDY    62  59  90 NW3       30.04S
MONROE         CLOUDY    63  61  93 W3        30.02S
WADESBORO      CLOUDY    64  63  96 CALM      30.02F
ROCKINGHAM     CLOUDY    64  63  97 CALM      30.02S
RUTHERFORDTON  CLOUDY    63  62  99 CALM      30.05R
ASHEVILLE      LGT RAIN  60  58  92 CALM      30.07S

$$



USA.gov is the U.S. government's official web portal to all federal, state and local government web resources and services.